• In Uzbekistan
  • List of Countries
  • For 7 days
  • Water Temperature
  • Satellite Maps
  • Weather Map
  • Weather Widgets
  • user-avatar
    Login

    Hourly Weather Al-Jahra

    Today, 15 December, Friday

    Time Temperature Precipitation Wind Pressure Humidity
    00:00 +15°C° 0 mm 5 mps 754 mmHg 18%
    01:00 +15°C° 0 mm 4 mps 754 mmHg 18%
    02:00 +14°C° 0 mm 4 mps 754 mmHg 17%
    03:00 +13°C° 0 mm 5 mps 753 mmHg 15%
    04:00 +13°C° 0 mm 5 mps 754 mmHg 16%
    05:00 +12°C° 0 mm 4 mps 754 mmHg 17%
    06:00 +12°C° 0 mm 4 mps 754 mmHg 18%
    07:00 +13°C° 0 mm 4 mps 754 mmHg 17%
    08:00 +14°C° 0 mm 4 mps 754 mmHg 17%
    09:00 +15°C° 0 mm 4 mps 755 mmHg 16%
    10:00 +17°C° 0 mm 4 mps 755 mmHg 15%
    11:00 +18°C° 0 mm 4 mps 755 mmHg 14%
    12:00 +20°C° 0 mm 4 mps 755 mmHg 13%
    13:00 +20°C° 0 mm 4 mps 754 mmHg 16%
    14:00 +21°C° 0 mm 4 mps 754 mmHg 18%
    15:00 +21°C° 0 mm 4 mps 754 mmHg 20%
    16:00 +20°C° 0 mm 4 mps 754 mmHg 25%
    17:00 +19°C° 0 mm 4 mps 755 mmHg 29%
    18:00 +18°C° 0 mm 3 mps 755 mmHg 34%
    19:00 +18°C° 0 mm 4 mps 755 mmHg 36%
    20:00 +16°C° 0 mm 5 mps 756 mmHg 39%
    21:00 +16°C° 0 mm 5 mps 756 mmHg 41%
    22:00 +15°C° 0 mm 5 mps 756 mmHg 41%
    23:00 +15°C° 0 mm 5 mps 756 mmHg 42%

    Tomorrow, 16 December, Saturday

    Time Temperature Precipitation Wind Pressure Humidity
    00:00 +14°C° 0 mm 5 mps 756 mmHg 42%
    01:00 +14°C° 0 mm 5 mps 757 mmHg 45%
    02:00 +14°C° 0 mm 5 mps 757 mmHg 49%
    03:00 +13°C° 0 mm 5 mps 757 mmHg 53%
    04:00 +13°C° 0 mm 5 mps 757 mmHg 58%
    05:00 +13°C° 0 mm 5 mps 757 mmHg 64%
    06:00 +12°C° 0 mm 4 mps 757 mmHg 69%
    07:00 +13°C° 0 mm 5 mps 758 mmHg 68%
    08:00 +14°C° 0 mm 5 mps 758 mmHg 67%
    09:00 +15°C° 0 mm 5 mps 759 mmHg 65%
    10:00 +17°C° 0 mm 5 mps 759 mmHg 56%
    11:00 +20°C° 0 mm 5 mps 759 mmHg 46%
    12:00 +21°C° 0 mm 4 mps 759 mmHg 37%
    13:00 +22°C° 0 mm 4 mps 758 mmHg 35%
    14:00 +22°C° 0 mm 5 mps 758 mmHg 33%
    15:00 +22°C° 0 mm 5 mps 758 mmHg 31%
    16:00 +21°C° 0 mm 4 mps 758 mmHg 36%
    17:00 +20°C° 0 mm 3 mps 759 mmHg 41%
    18:00 +19°C° 0 mm 3 mps 759 mmHg 46%
    19:00 +18°C° 0 mm 3 mps 759 mmHg 50%
    20:00 +17°C° 0 mm 2 mps 760 mmHg 54%
    21:00 +17°C° 0 mm 2 mps 760 mmHg 58%
    22:00 +16°C° 0 mm 2 mps 760 mmHg 61%
    23:00 +16°C° 0 mm 1 mps 760 mmHg 65%

    Day after tomorrow, 17 December, Sunday

    Time Temperature Precipitation Wind Pressure Humidity
    00:00 +15°C° 0 mm 1 mps 760 mmHg 68%
    01:00 +15°C° 0 mm 1 mps 761 mmHg 68%
    02:00 +15°C° 0 mm 2 mps 761 mmHg 68%
    03:00 +15°C° 0 mm 2 mps 761 mmHg 68%
    04:00 +15°C° 0 mm 2 mps 761 mmHg 67%
    05:00 +14°C° 0 mm 3 mps 761 mmHg 67%
    06:00 +14°C° 0 mm 3 mps 761 mmHg 66%
    07:00 +16°C° 0 mm 3 mps 762 mmHg 60%
    08:00 +17°C° 0 mm 3 mps 762 mmHg 53%
    09:00 +18°C° 0 mm 3 mps 762 mmHg 47%
    10:00 +20°C° 0 mm 3 mps 762 mmHg 44%
    11:00 +21°C° 0 mm 3 mps 762 mmHg 41%
    12:00 +22°C° 0 mm 3 mps 762 mmHg 37%
    13:00 +24°C° 0 mm 2 mps 761 mmHg 36%
    14:00 +24°C° 0 mm 2 mps 761 mmHg 34%
    15:00 +24°C° 0 mm 2 mps 761 mmHg 32%
    16:00 +23°C° 0 mm 2 mps 761 mmHg 33%
    17:00 +21°C° 0 mm 2 mps 761 mmHg 35%
    18:00 +20°C° 0 mm 2 mps 761 mmHg 36%
    19:00 +19°C° 0 mm 2 mps 761 mmHg 37%
    20:00 +19°C° 0 mm 2 mps 762 mmHg 38%
    21:00 +18°C° 0 mm 2 mps 762 mmHg 38%
    22:00 +18°C° 0 mm 2 mps 762 mmHg 38%
    23:00 +18°C° 0 mm 2 mps 762 mmHg 38%

    18 December, Monday

    Time Temperature Precipitation Wind Pressure Humidity
    00:00 +17°C° 0 mm 3 mps 762 mmHg 38%
    01:00 +17°C° 0 mm 3 mps 762 mmHg 39%
    02:00 +17°C° 0 mm 3 mps 762 mmHg 40%
    03:00 +16°C° 0 mm 3 mps 762 mmHg 41%
    04:00 +16°C° 0 mm 3 mps 762 mmHg 43%
    05:00 +16°C° 0 mm 3 mps 763 mmHg 45%
    06:00 +14°C° 0 mm 3 mps 763 mmHg 47%
    07:00 +16°C° 0 mm 3 mps 763 mmHg 44%
    08:00 +17°C° 0 mm 3 mps 764 mmHg 41%
    09:00 +19°C° 0 mm 3 mps 764 mmHg 38%
    10:00 +20°C° 0 mm 2 mps 764 mmHg 35%
    11:00 +21°C° 0 mm 2 mps 763 mmHg 32%
    12:00 +23°C° 0 mm 2 mps 763 mmHg 29%
    13:00 +23°C° 0 mm 2 mps 762 mmHg 28%
    14:00 +24°C° 0 mm 2 mps 762 mmHg 27%
    15:00 +24°C° 0 mm 2 mps 761 mmHg 26%
    16:00 +23°C° 0 mm 1 mps 761 mmHg 28%
    17:00 +22°C° 0 mm 1 mps 762 mmHg 30%
    18:00 +20°C° 0 mm 1 mps 762 mmHg 32%
    19:00 +20°C° 0 mm 1 mps 762 mmHg 33%
    20:00 +19°C° 0 mm 1 mps 762 mmHg 34%
    21:00 +19°C° 0 mm 1 mps 763 mmHg 35%
    22:00 +18°C° 0 mm 1 mps 763 mmHg 37%
    23:00 +18°C° 0 mm 1 mps 763 mmHg 38%

    19 December, Tuesday

    Time Temperature Precipitation Wind Pressure Humidity
    00:00 +16°C° 0 mm 1 mps 762 mmHg 39%
    01:00 +16°C° 0 mm 1 mps 762 mmHg 40%
    02:00 +16°C° 0 mm 1 mps 762 mmHg 41%
    03:00 +15°C° 0 mm 1 mps 762 mmHg 42%
    04:00 +15°C° 0 mm 1 mps 763 mmHg 43%
    05:00 +15°C° 0 mm 1 mps 763 mmHg 43%
    06:00 +15°C° 0 mm 1 mps 763 mmHg 44%
    07:00 +16°C° 0 mm 1 mps 763 mmHg 40%
    08:00 +19°C° 0 mm 1 mps 764 mmHg 37%
    09:00 +21°C° 0 mm 1 mps 764 mmHg 33%
    10:00 +22°C° 0 mm 1 mps 764 mmHg 31%
    11:00 +23°C° 0 mm 1 mps 764 mmHg 30%
    12:00 +24°C° 0 mm 2 mps 763 mmHg 28%
    13:00 +24°C° 0 mm 1 mps 763 mmHg 27%
    14:00 +24°C° 0 mm 1 mps 762 mmHg 27%
    15:00 +25°C° 0 mm 1 mps 762 mmHg 26%
    16:00 +24°C° 0 mm 1 mps 762 mmHg 28%
    17:00 +22°C° 0 mm 1 mps 762 mmHg 31%
    18:00 +21°C° 0 mm 1 mps 763 mmHg 33%
    19:00 +21°C° 0 mm 1 mps 763 mmHg 34%
    20:00 +20°C° 0 mm 2 mps 763 mmHg 35%
    21:00 +19°C° 0 mm 2 mps 763 mmHg 36%
    22:00 +19°C° 0 mm 2 mps 763 mmHg 37%
    23:00 +19°C° 0 mm 2 mps 763 mmHg 38%

    20 December, Wednesday

    Time Temperature Precipitation Wind Pressure Humidity
    00:00 +18°C° 0 mm 2 mps 762 mmHg 39%
    01:00 +18°C° 0 mm 2 mps 762 mmHg 39%
    02:00 +18°C° 0 mm 2 mps 762 mmHg 40%
    03:00 +17°C° 0 mm 2 mps 762 mmHg 41%
    04:00 +17°C° 0 mm 2 mps 762 mmHg 41%
    05:00 +17°C° 0 mm 2 mps 763 mmHg 41%
    06:00 +17°C° 0 mm 2 mps 763 mmHg 42%
    07:00 +18°C° 0 mm 2 mps 763 mmHg 39%
    08:00 +19°C° 0 mm 2 mps 764 mmHg 37%
    09:00 +20°C° 0 mm 2 mps 764 mmHg 34%
    10:00 +21°C° 0 mm 2 mps 764 mmHg 31%
    11:00 +24°C° 0 mm 2 mps 763 mmHg 28%
    12:00 +25°C° 0 mm 2 mps 763 mmHg 26%
    13:00 +25°C° 0 mm 2 mps 762 mmHg 25%
    14:00 +26°C° 0 mm 2 mps 762 mmHg 24%
    15:00 +26°C° 0 mm 2 mps 762 mmHg 23%
    16:00 +25°C° 0 mm 2 mps 762 mmHg 25%
    17:00 +24°C° 0 mm 3 mps 762 mmHg 28%
    18:00 +22°C° 0 mm 3 mps 762 mmHg 30%
    19:00 +21°C° 0 mm 3 mps 763 mmHg 33%
    20:00 +21°C° 0 mm 3 mps 763 mmHg 36%
    21:00 +20°C° 0 mm 3 mps 763 mmHg 38%
    22:00 +20°C° 0 mm 3 mps 763 mmHg 39%
    23:00 +19°C° 0 mm 3 mps 763 mmHg 39%
    Show more